When you browse on this site, cookies collect data to enhance your experience and personalize the content and advertising you see.
Visit our Privacy Policy to learn more. By continuing to use the site, you agree to this use of cookies and data.
EN

Hourly Weather Chistyakovе (Torez)

Today, 12 July, Sunday

Time Temperature Precipitation Wind Pressure Humidity
00:00 +20°C° 0 mm 3 mps 743 mmHg 61%
01:00 +19°C° 0 mm 4 mps 743 mmHg 64%
02:00 +19°C° 0 mm 4 mps 742 mmHg 66%
03:00 +18°C° 0 mm 4 mps 742 mmHg 69%
04:00 +18°C° 0 mm 4 mps 742 mmHg 71%
05:00 +19°C° 0 mm 4 mps 742 mmHg 72%
06:00 +19°C° 0 mm 4 mps 741 mmHg 74%
07:00 +21°C° 0 mm 5 mps 741 mmHg 71%
08:00 +23°C° 0 mm 5 mps 741 mmHg 68%
09:00 +26°C° 0 mm 5 mps 741 mmHg 65%
10:00 +28°C° 0.1 mm 5 mps 741 mmHg 60%
11:00 +30°C° 0.1 mm 5 mps 740 mmHg 55%
12:00 +33°C° 0.1 mm 5 mps 740 mmHg 50%
13:00 +33°C° 0 mm 4 mps 740 mmHg 48%
14:00 +33°C° 0 mm 4 mps 740 mmHg 46%
15:00 +34°C° 0 mm 3 mps 739 mmHg 44%
16:00 +33°C° 0.1 mm 3 mps 738 mmHg 46%
17:00 +32°C° 0.1 mm 2 mps 738 mmHg 48%
18:00 +31°C° 0.1 mm 2 mps 737 mmHg 50%
19:00 +29°C° 1.3 mm 3 mps 737 mmHg 59%
20:00 +27°C° 1.3 mm 4 mps 737 mmHg 67%
21:00 +23°C° 1.3 mm 5 mps 737 mmHg 76%
22:00 +22°C° 1.1 mm 4 mps 737 mmHg 77%
23:00 +22°C° 1.1 mm 4 mps 737 mmHg 78%

Tomorrow, 13 July, Monday

Time Temperature Precipitation Wind Pressure Humidity
00:00 +21°C° 1.1 mm 4 mps 737 mmHg 80%
01:00 +21°C° 0 mm 3 mps 736 mmHg 81%
02:00 +20°C° 0 mm 2 mps 736 mmHg 83%
03:00 +21°C° 0 mm 1 mps 736 mmHg 85%
04:00 +20°C° 0.1 mm 2 mps 736 mmHg 85%
05:00 +20°C° 0.1 mm 3 mps 735 mmHg 86%
06:00 +20°C° 0.1 mm 4 mps 735 mmHg 87%
07:00 +22°C° 0 mm 3 mps 735 mmHg 80%
08:00 +25°C° 0 mm 3 mps 736 mmHg 72%
09:00 +26°C° 0 mm 2 mps 736 mmHg 65%
10:00 +28°C° 0 mm 1 mps 736 mmHg 60%
11:00 +29°C° 0 mm 1 mps 735 mmHg 54%
12:00 +31°C° 0 mm 1 mps 735 mmHg 49%
13:00 +31°C° 0 mm 1 mps 735 mmHg 47%
14:00 +32°C° 0 mm 1 mps 735 mmHg 45%
15:00 +32°C° 0 mm 1 mps 735 mmHg 43%
16:00 +30°C° 1.1 mm 2 mps 734 mmHg 52%
17:00 +28°C° 1.1 mm 3 mps 734 mmHg 61%
18:00 +26°C° 1.1 mm 4 mps 733 mmHg 70%
19:00 +25°C° 1.8 mm 3 mps 733 mmHg 73%
20:00 +22°C° 1.8 mm 3 mps 734 mmHg 77%
21:00 +21°C° 1.8 mm 2 mps 734 mmHg 80%
22:00 +21°C° 1.1 mm 2 mps 734 mmHg 82%
23:00 +21°C° 1.1 mm 2 mps 734 mmHg 84%

Day after tomorrow, 14 July, Tuesday

Time Temperature Precipitation Wind Pressure Humidity
00:00 +20°C° 1.1 mm 3 mps 734 mmHg 85%
01:00 +20°C° 0.3 mm 2 mps 734 mmHg 86%
02:00 +20°C° 0.3 mm 2 mps 733 mmHg 86%
03:00 +21°C° 0.3 mm 1 mps 733 mmHg 87%
04:00 +21°C° 0 mm 1 mps 733 mmHg 86%
05:00 +21°C° 0 mm 1 mps 733 mmHg 86%
06:00 +21°C° 0 mm 1 mps 734 mmHg 86%
07:00 +22°C° 0.2 mm 1 mps 734 mmHg 82%
08:00 +23°C° 0.2 mm 1 mps 734 mmHg 78%
09:00 +24°C° 0.2 mm 2 mps 735 mmHg 74%
10:00 +25°C° 0 mm 3 mps 735 mmHg 71%
11:00 +26°C° 0 mm 4 mps 735 mmHg 68%
12:00 +26°C° 0 mm 4 mps 735 mmHg 64%
13:00 +27°C° 0.1 mm 5 mps 735 mmHg 62%
14:00 +27°C° 0.1 mm 5 mps 735 mmHg 60%
15:00 +27°C° 0.1 mm 6 mps 735 mmHg 58%
16:00 +26°C° 0.4 mm 6 mps 735 mmHg 60%
17:00 +25°C° 0.4 mm 5 mps 735 mmHg 63%
18:00 +23°C° 0.4 mm 5 mps 735 mmHg 66%
19:00 +22°C° 0.8 mm 5 mps 735 mmHg 72%
20:00 +20°C° 0.8 mm 4 mps 736 mmHg 79%
21:00 +18°C° 0.8 mm 4 mps 736 mmHg 85%
22:00 +18°C° 0 mm 4 mps 736 mmHg 87%
23:00 +17°C° 0 mm 4 mps 736 mmHg 90%

15 July, Wednesday

Time Temperature Precipitation Wind Pressure Humidity
00:00 +15°C° 0 mm 4 mps 736 mmHg 92%
01:00 +15°C° 0 mm 4 mps 736 mmHg 91%
02:00 +15°C° 0 mm 5 mps 736 mmHg 91%
03:00 +15°C° 0 mm 5 mps 736 mmHg 91%
04:00 +15°C° 0.1 mm 6 mps 736 mmHg 90%
05:00 +16°C° 0.1 mm 6 mps 736 mmHg 89%
06:00 +16°C° 0.1 mm 7 mps 736 mmHg 87%
07:00 +16°C° 0.1 mm 7 mps 737 mmHg 86%
08:00 +16°C° 0.1 mm 7 mps 737 mmHg 85%
09:00 +16°C° 0.1 mm 7 mps 737 mmHg 84%
10:00 +17°C° 0 mm 7 mps 738 mmHg 81%
11:00 +18°C° 0 mm 7 mps 738 mmHg 77%
12:00 +18°C° 0 mm 7 mps 739 mmHg 74%
13:00 +20°C° 0 mm 7 mps 739 mmHg 68%
14:00 +21°C° 0 mm 6 mps 739 mmHg 63%
15:00 +22°C° 0 mm 6 mps 740 mmHg 58%
16:00 +22°C° 0.1 mm 5 mps 740 mmHg 58%
17:00 +22°C° 0.1 mm 5 mps 740 mmHg 59%
18:00 +22°C° 0.1 mm 4 mps 740 mmHg 59%
19:00 +21°C° 0 mm 4 mps 740 mmHg 63%
20:00 +20°C° 0 mm 3 mps 740 mmHg 66%
21:00 +18°C° 0 mm 2 mps 741 mmHg 69%
22:00 +18°C° 0 mm 2 mps 741 mmHg 70%
23:00 +17°C° 0 mm 2 mps 740 mmHg 71%

16 July, Thursday

Time Temperature Precipitation Wind Pressure Humidity
00:00 +16°C° 0 mm 2 mps 740 mmHg 72%
01:00 +16°C° 0 mm 2 mps 740 mmHg 74%
02:00 +16°C° 0 mm 2 mps 740 mmHg 76%
03:00 +15°C° 0 mm 1 mps 740 mmHg 78%
04:00 +15°C° 0 mm 2 mps 740 mmHg 78%
05:00 +16°C° 0 mm 2 mps 740 mmHg 79%
06:00 +16°C° 0 mm 2 mps 740 mmHg 79%
07:00 +18°C° 0 mm 2 mps 741 mmHg 71%
08:00 +19°C° 0 mm 2 mps 741 mmHg 62%
09:00 +21°C° 0 mm 3 mps 741 mmHg 54%
10:00 +22°C° 0 mm 3 mps 741 mmHg 50%
11:00 +24°C° 0 mm 3 mps 741 mmHg 45%
12:00 +25°C° 0 mm 3 mps 741 mmHg 41%
13:00 +26°C° 0 mm 3 mps 741 mmHg 41%
14:00 +26°C° 0 mm 4 mps 741 mmHg 41%
15:00 +26°C° 0 mm 4 mps 740 mmHg 41%
16:00 +26°C° 0 mm 3 mps 740 mmHg 44%
17:00 +25°C° 0 mm 3 mps 740 mmHg 47%
18:00 +25°C° 0 mm 3 mps 740 mmHg 50%
19:00 +23°C° 0 mm 2 mps 740 mmHg 54%
20:00 +21°C° 0 mm 2 mps 740 mmHg 57%
21:00 +21°C° 0 mm 1 mps 740 mmHg 60%
22:00 +20°C° 0 mm 1 mps 740 mmHg 61%
23:00 +20°C° 0 mm 1 mps 740 mmHg 63%

17 July, Friday

Time Temperature Precipitation Wind Pressure Humidity
00:00 +19°C° 0 mm 1 mps 740 mmHg 64%
01:00 +17°C° 0 mm 0 mps 740 mmHg 64%
02:00 +16°C° 0 mm 0 mps 740 mmHg 65%
03:00 +16°C° 0 mm 0 mps 740 mmHg 66%
04:00 +16°C° 0 mm 0 mps 740 mmHg 66%
05:00 +17°C° 0 mm 0 mps 740 mmHg 66%
06:00 +17°C° 0 mm 0 mps 740 mmHg 66%
07:00 +21°C° 0 mm 1 mps 740 mmHg 61%
08:00 +22°C° 0 mm 1 mps 740 mmHg 57%
09:00 +24°C° 0 mm 2 mps 741 mmHg 52%
10:00 +25°C° 0 mm 2 mps 741 mmHg 49%
11:00 +26°C° 0 mm 1 mps 741 mmHg 45%
12:00 +27°C° 0 mm 1 mps 741 mmHg 42%
13:00 +27°C° 0 mm 1 mps 740 mmHg 40%
14:00 +28°C° 0 mm 1 mps 740 mmHg 39%
15:00 +28°C° 0 mm 1 mps 740 mmHg 38%
16:00 +28°C° 0 mm 1 mps 740 mmHg 38%
17:00 +28°C° 0 mm 1 mps 740 mmHg 38%
18:00 +28°C° 0 mm 2 mps 740 mmHg 39%
19:00 +26°C° 0 mm 2 mps 740 mmHg 43%
20:00 +24°C° 0 mm 2 mps 740 mmHg 47%
21:00 +21°C° 0 mm 2 mps 740 mmHg 51%
22:00 +21°C° 0 mm 2 mps 740 mmHg 52%
23:00 +21°C° 0 mm 2 mps 740 mmHg 53%
Show more